#timestamp,LO_Frequency,Hit,StdDev 
1708732815.4,286047000.6,N
1708732835.2,286046996.5,N
1708732855.0,286046998.9,N
1708732855.9,286046998.9,N
1708732875.8,286046998.4,N
1708732895.6,286047000.7,N
1708732915.5,286047000.5,N
1708732935.3,286046998.2,N
1708732955.1,286046998.4,N
1708732975.9,286046999.0,N
1708732995.7,286046998.5,N
1708733015.5,286047000.8,N
1708733035.4,286047001.1,N
1708733055.2,286047001.2,N
1708733075.1,286046998.6,N
1708733076.0,286046998.6,N
1708733095.8,286046998.7,N
1708733115.6,286047000.0,N
1708733135.5,286046999.8,N
1708733155.3,286047001.4,N
1708733175.1,286047002.0,N
1708733195.9,286047001.5,N
1708733215.7,286047002.5,N
1708733235.6,286047000.2,N
1708733255.4,286047000.3,N
1708733275.2,286046998.2,N
1708733295.1,286047001.1,N
1708733296.0,286047001.1,N
1708733315.8,286047000.0,N
1708733335.6,286046998.6,N
1708733355.5,286046996.6,N
1708733375.3,286046996.5,N
1708733395.2,286046998.1,N
1708733415.9,286047000.4,N
1708733435.7,286047000.8,N
1708733455.6,286046999.8,N
1708733475.4,286047000.3,N
1708733495.2,286047001.6,N
1708733515.1,286047002.6,N
1708733516.0,286047002.6,N
1708733535.8,286047000.1,N
1708733555.7,286047002.8,N
1708733575.5,286047000.2,N
1708733595.3,286047000.2,N
1708733615.2,286046998.3,N
1708733635.0,286046998.2,N
1708733635.9,286046998.2,N
1708733655.7,286046998.2,N
1708733675.6,286046999.4,N
1708733695.4,286046999.5,N
1708733715.3,286046997.7,N
1708733735.1,286046997.8,N
1708733736.0,286046997.8,N
1708733755.8,286046999.6,N
1708733775.7,286047000.1,N
1708733795.5,286047002.6,N
1708733815.3,286047000.2,N
1708733835.2,286047002.4,N
1708733855.0,286047002.4,N
1708733855.9,286047002.4,N
1708733875.8,286047004.3,N
1708733895.6,286047000.2,N
1708733915.4,286047000.5,N
1708733935.3,286047000.1,N
1708733955.1,286047000.6,N
1708733975.8,286047000.3,N
1708733995.7,286047000.1,N
1708734015.5,286047002.6,N
1708734035.4,286047001.0,N
1708734055.2,286047000.2,N
1708734075.0,286047002.4,N
1708734075.9,286047002.4,N
1708734095.8,286047000.2,N
1708734115.6,286047002.6,N
1708734135.4,286047002.7,N
1708734155.3,286047001.6,N
1708734175.1,286047004.3,N
1708734195.9,286047001.3,N
1708734215.7,286047002.5,N
1708734235.5,286047001.3,N
1708734255.4,286047002.2,N
1708734275.2,286047001.7,N
1708734295.0,286047002.6,N
1708734295.9,286047002.6,N
1708734315.8,286047001.3,N
1708734335.6,286047000.2,N
1708734355.5,286047002.3,N
1708734375.3,286047000.3,N
1708734395.1,286046999.7,N
1708734415.9,286047000.4,N
1708734435.7,286047002.3,N
1708734455.5,286046999.8,N
1708734475.4,286046998.5,N
1708734495.2,286047000.4,N
1708734515.0,286047000.3,N
1708734516.0,286047000.3,N
1708734535.8,286047002.7,N
1708734555.6,286047001.0,N
1708734575.5,286047000.9,N
1708734595.3,286047000.5,N
1708734615.1,286046999.7,N
1708734635.9,286047000.8,N
1708734655.7,286046998.8,N
1708734675.5,286046997.6,N
1708734695.4,286046998.4,N
1708734715.2,286046999.8,N
1708734735.1,286047002.5,N
1708734736.0,286047002.5,N
1708734755.8,286047002.4,N
1708734775.6,286047000.3,N
1708734795.5,286047000.8,N
1708734815.3,286047001.0,N
1708734835.1,286047002.3,N
1708734855.9,286047002.8,N
1708734875.7,286047002.8,N
1708734895.6,286047002.6,N
1708734915.4,286047002.4,N
1708734935.2,286047002.5,N
1708734955.1,286047002.6,N
1708734956.0,286047002.6,N
1708734975.8,286047002.6,N
1708734995.6,286046999.7,N
1708735015.5,286047000.9,N
1708735035.3,286047000.6,N
1708735055.2,286047000.3,N
1708735075.9,286047000.2,N
1708735095.7,286047002.8,N
1708735115.6,286046999.7,N
1708735135.4,286047002.2,N
1708735155.2,286046999.7,N
1708735175.1,286047000.2,N
1708735176.0,286047000.2,N
1708735195.8,286047000.6,N
1708735215.6,286046998.8,N
1708735235.5,286046997.6,N
1708735255.3,286046997.0,N
1708735275.2,286046998.2,N
1708735295.9,286047000.3,N
1708735315.7,286047002.3,N
1708735335.6,286047002.1,N
1708735355.4,286047002.0,N
1708735375.2,286047002.0,N
1708735395.1,286047004.1,N
1708735396.0,286047004.1,N
1708735415.8,286047003.9,N
1708735435.7,286047003.6,N
1708735455.5,286047006.0,Y
1708735475.3,286047004.2,P
1708735495.2,286047003.8,N
1708735515.0,286047001.6,N
1708735515.9,286047001.6,N
1708735535.8,286047000.3,N
1708735555.6,286047000.3,N
1708735575.4,286047002.7,N
1708735595.3,286047002.6,N
1708735615.1,286047000.8,N
1708735616.0,286047000.8,N
1708735635.8,286047000.0,N
1708735655.7,286047000.8,N
1708735675.5,286046998.5,N
1708735695.3,286046998.4,N
1708735715.2,286046998.5,N
1708735735.0,286046999.6,N
1708735735.9,286046999.6,N
1708735755.8,286046999.0,N
1708735775.6,286047001.1,N
1708735795.4,286047000.7,N
1708735815.3,286047001.1,N
1708735835.1,286047000.6,N
1708735855.8,286047000.7,N
1708735875.7,286047000.5,N
1708735895.5,286047000.9,N
1708735915.4,286046998.5,N
1708735935.2,286046998.5,N
1708735955.0,286046998.6,N
1708735955.9,286046998.6,N
1708735975.8,286046997.3,N
1708735995.6,286046996.6,N
1708736015.4,286046999.5,N
1708736035.3,286046998.9,N
1708736055.1,286046998.6,N
1708736075.9,286046998.5,N
1708736095.7,286047001.0,N
1708736115.5,286047000.3,N
1708736135.4,286046998.5,N
1708736155.2,286046998.6,N
1708736175.0,286046998.9,N
1708736175.9,286046998.9,N
1708736195.8,286046998.6,N
1708736215.6,286047001.1,N
1708736235.5,286046998.3,N
1708736255.3,286047000.4,N
1708736275.1,286047001.2,N
1708736295.9,286046998.9,N
1708736315.7,286046997.6,N
1708736335.5,286046997.4,N
1708736355.4,286046999.2,N
1708736375.2,286046996.7,N
1708736395.1,286046995.8,Y
1708736396.0,286046995.8,P
